This demonstration page uses our WeatherBlox Daily Observations layout. Learn more.

Left ArrowRight Arrow

39.51506, -84.39828

Hourly Observations for February 4, 2019

Temp ( °F °C ) Dew Point ( °F °C ) Humidity (%) Winds ( mph kmh ) Pressure ( in mb ) Visibility ( mi km ) Precip ( " mm )
12:15 am 00:15 Clear 33 0.3 31 -0.4 95 95 Calm 30.00 1016 10 16 0.00 0.00
12:35 am 00:35 Clear 32 0.1 31 -0.7 94 94 Calm 30.01 1016 10 16 0.00 0.00
12:55 am 00:55 Clear 32 0.1 31 -0.6 95 95 Calm 30.01 1016 10 16 0.00 0.00
1:15 am 01:15 Clear 31 -0.3 31 -0.8 96 96 Calm 30.02 1016 10 16 0.00 0.00
1:35 am 01:35 Clear 32 -0.2 31 -0.7 96 96 Calm 30.01 1016 10 16 0.00 0.00
1:55 am 01:55 Clear 31 -0.5 30 -1 96 96 Calm 30.01 1016 10 16 0.00 0.00
2:15 am 02:15 Clear 31 -0.6 30 -1.1 96 96 Calm 30.01 1016 10 16 0.00 0.00
2:35 am 02:35 Clear 31 -0.6 30 -1.1 96 96 Calm 30.02 1016 10 16 0.00 0.00
2:55 am 02:55 Clear 31 -0.7 30 -1.2 96 96 Calm 30.01 1016 10 16 0.00 0.00
3:15 am 03:15 Clear 31 -0.8 29 -1.4 96 96 Calm 30.01 1016 10 16 0.00 0.00
3:35 am 03:35 Clear 31 -0.8 30 -1.3 96 96 Calm 30.01 1016 10 16 0.00 0.00
3:55 am 03:55 Clear 30 -0.9 30 -1.3 97 97 Calm 30.00 1016 10 16 0.00 0.00
4:15 am 04:15 Clear 31 -0.8 30 -1.3 96 96 Calm 30.00 1016 10 16 0.00 0.00
4:35 am 04:35 Clear 31 -0.8 30 -1.3 96 96 Calm 29.99 1015 10 16 0.00 0.00
4:55 am 04:55 Clear 30 -1.3 29 -1.8 96 96 Calm 29.99 1016 10 16 0.00 0.00
5:15 am 05:15 Clear 29 -1.4 28 -2.1 95 95 Calm 30.00 1016 10 16 0.00 0.00
5:35 am 05:35 Clear 30 -1.3 29 -1.9 96 96 Calm 30.00 1016 10 16 0.00 0.00
5:55 am 05:55 Clear 30 -1.3 29 -1.9 96 96 Calm 30.00 1016 10 16 0.00 0.00
6:15 am 06:15 Clear 30 -1.3 28 -2.1 94 94 Calm 30.00 1016 10 16 0.00 0.00
6:35 am 06:35 Clear 31 -0.7 30 -1.2 96 96 Calm 30.00 1016 10 16 0.00 0.00
6:55 am 06:55 Clear 30 -0.9 29 -1.4 96 96 Calm 29.99 1015 10 16 0.00 0.00
7:15 am 07:15 Clear 30 -1.2 29 -1.6 97 97 Calm 30.00 1016 7 11 0.00 0.00
7:35 am 07:35 Clear with Mist and Fog 30 -1.2 29 -1.6 97 97 Calm 29.99 1016 5 8 0.00 0.00
7:55 am 07:55 Sunny with Mist and Fog 30 -1.2 29 -1.6 97 97 Calm 29.99 1016 7 11 0.00 0.00
8:15 am 08:15 Sunny with Mist and Fog 31 -0.8 30 -1.2 97 97 Calm 29.99 1015 5 8 0.00 0.00
8:35 am 08:35 Partly Cloudy with Mist and Fog 33 0.5 32 0 96 96 W 3 6 29.98 1015 7 11 0.00 0.00
8:55 am 08:55 Sunny with Mist and Fog 39 3.9 38 3.6 98 98 Calm 29.97 1015 4 6 0.00 0.00
9:15 am 09:15 Sunny with Mist and Fog 44 6.9 43 6.1 95 95 Calm 29.97 1015 7 11 0.00 0.00
9:35 am 09:35 Partly Cloudy 49 9.6 45 7.1 85 85 S 5 7 29.96 1015 10 16 0.00 0.00
9:55 am 09:55 Mostly Cloudy 50 10.2 46 7.6 84 84 SW 5 7 29.95 1014 10 16 0.00 0.00
10:15 am 10:15 Cloudy 53 11.5 47 8.1 80 80 S 9 15 29.95 1014 10 16 0.00 0.00
10:35 am 10:35 Cloudy 53 11.7 47 8.2 79 79 S 7 11 29.94 1014 10 16 0.00 0.00
10:55 am 10:55 Cloudy 54 12.3 47 8.3 77 77 S 9 15 29.94 1014 10 16 0.00 0.00
11:15 am 11:15 Cloudy 55 12.7 47 8.6 76 76 S 13 20 29.94 1014 10 16 0.00 0.00
11:35 am 11:35 Mostly Cloudy 55 13 48 8.7 75 75 S 13 20 29.93 1014 10 16 0.00 0.00
11:55 am 11:55 Sunny 57 14 49 9.3 74 74 S 15 24 29.92 1013 10 16 0.00 0.00
12:15 pm 12:15 Mostly Cloudy 57 13.7 49 9.2 74 74 S 13 20 29.92 1013 10 16 0.00 0.00
12:35 pm 12:35 Mostly Cloudy 57 14 49 9.4 74 74 S 13 20 29.91 1013 10 16 0.00 0.00
12:55 pm 12:55 Mostly Cloudy 58 14.7 50 9.8 73 73 S 10 17 29.90 1012 10 16 0.00 0.00
1:15 pm 13:15 Cloudy 58 14.5 50 9.9 74 74 S 13 20 29.89 1012 10 16 0.00 0.00
1:35 pm 13:35 Cloudy 58 14.6 51 10.3 76 76 S 8 13 29.88 1012 10 16 0.00 0.00
1:55 pm 13:55 Cloudy 57 14 51 10.3 79 79 SSW 10 17 29.88 1012 10 16 0.00 0.00
2:15 pm 14:15 Cloudy with Rain 57 13.8 52 11 83 83 SSW 9 15 29.87 1011 7 11 0.00 0.00
2:35 pm 14:35 Cloudy with Light Rain 56 13.4 52 11.2 87 87 SSW 12 19 29.87 1012 4 6 0.00 0.00
2:55 pm 14:55 Cloudy with Rain 55 12.6 53 11.5 93 93 S 7 11 29.87 1012 5 8 0.01 0.25
3:15 pm 15:15 Cloudy with Rain 55 12.5 53 11.7 95 95 S 7 11 29.86 1011 3 5 0.01 0.25
3:35 pm 15:35 Cloudy with Light Rain 55 12.5 54 12 97 97 S 7 11 29.85 1011 1 2 0.04 1.02
3:55 pm 15:55 Cloudy with Mist and Fog 55 12.5 53 11.9 96 96 SSW 8 13 29.86 1011 5 8 0.04 1.02
4:15 pm 16:15 Cloudy with Light Rain 55 12.5 53 11.7 95 95 S 10 17 29.87 1012 5 8 0.00 0.00
4:35 pm 16:35 Cloudy with Light Rain 55 12.5 53 11.8 96 96 S 8 13 29.86 1011 5 8 0.00 0.00
4:55 pm 16:55 Cloudy with Drizzle 55 12.5 53 11.9 96 96 S 9 15 29.86 1011 5 8 0.00 0.00
5:15 pm 17:15 Cloudy with Mist and Fog 55 12.5 53 11.8 96 96 SSW 9 15 29.86 1011 7 11 0.00 0.00
5:35 pm 17:35 Cloudy with Mist and Fog 54 12 54 12 100 100 S 7 11 29.86 1011 2 3 0.00 0.00
5:55 pm 17:55 Cloudy with Drizzle 54 12.3 53 11.8 97 97 S 9 15 29.86 1011 2 3 0.00 0.00
6:15 pm 18:15 Cloudy with Mist and Fog 54 12.2 53 11.7 97 97 SSW 8 13 29.87 1012 4 6 0.00 0.00
6:35 pm 18:35 Cloudy with Mist and Fog 53 11.5 52 11.1 97 97 SSW 7 11 29.88 1012 3 4 0.00 0.00
7:15 pm 19:15 Cloudy with Drizzle 54 12 53 11.8 99 99 SSW 6 9 29.87 1012 2 2 0.00 0.00
7:35 pm 19:35 Cloudy with Drizzle 53 11.8 53 11.6 99 99 SSW 8 13 29.88 1012 1 2 0.00 0.00
7:55 pm 19:55 Cloudy with Light Rain 53 11.7 53 11.5 99 99 SSW 7 11 29.88 1012 2 2 0.00 0.00
8:15 pm 20:15 Cloudy with Mist and Fog 53 11.8 53 11.6 99 99 SSW 8 13 29.88 1012 2 3 0.00 0.00
8:35 pm 20:35 Cloudy with Mist and Fog 53 11.8 53 11.6 99 99 SSW 7 11 29.88 1012 1 2 0.00 0.00
8:55 pm 20:55 Cloudy with Fog 53 11.6 53 11.5 99 99 SW 8 13 29.88 1012 1 1 0.00 0.00
9:15 pm 21:15 Cloudy with Light Rain 53 11.8 53 11.7 99 99 SSW 7 11 29.89 1012 1 2 0.00 0.00
9:35 pm 21:35 Cloudy with Mist and Fog 53 11.8 53 11.7 99 99 SSW 8 13 29.89 1012 1 2 0.00 0.00
9:55 pm 21:55 Cloudy with Mist and Fog 54 12 53 11.9 99 99 SSW 8 13 29.89 1012 2 2 0.00 0.00
10:15 pm 22:15 Cloudy with Mist and Fog 53 11.7 53 11.6 99 99 SSW 7 11 29.89 1012 1 1 0.00 0.00
10:35 pm 22:35 Cloudy with Fog 53 11.6 53 11.5 99 99 SSW 7 11 29.90 1013 1 1 0.00 0.00
10:55 pm 22:55 Cloudy with Mist and Fog 53 11.8 53 11.7 99 99 SSW 9 15 29.90 1013 1 1 0.00 0.00
11:15 pm 23:15 Cloudy with Drizzle 53 11.8 53 11.7 99 99 SW 8 13 29.90 1013 1 1 0.00 0.00
11:35 pm 23:35 Cloudy with Drizzle 53 11.8 53 11.7 99 99 SW 8 13 29.90 1013 1 1 0.00 0.00
11:55 pm 23:55 Cloudy with Light Rain 53 11.5 53 11.4 99 99 SW 7 11 29.92 1013 1 1 0.00 0.00

Powered by AerisWeather